Regional Weather Roundup
Issued by NWS Sioux Falls, SD

Home | Current Version | Previous Version | Text Only | Print | Product List | Glossary Off
Versions: 1 2 3 4 5 6 7 8 9 10 11 12 13 14 15 16 17 18 19 20 21 22 23 24 25 26 27 28 29 30 31 32 33 34 35 36 37 38 39 40 41 42 43 44 45 46 47 48 49 50

000
ASUS43 KFSD 240302
RWRFSD

WEATHER ROUNDUP FOR SE SOUTH DAKOTA/SW MINNESOTA/NW IOWA
NATIONAL WEATHER SERVICE SIOUX FALLS SD
900 PM CST MON JAN 23 2017

NOTE: "FAIR" INDICATES FEW OR NO CLOUDS BELOW 12,000 FEET WITH NO
SIGNIFICANT WEATHER AND OR OBSTRUCTIONS TO VISIBILITY.


SDZ038>040-050-052>070-240400-
SOUTHEAST SOUTH DAKOTA

CITY           SKY/WX    TMP DP  RH WIND       PRES   REMARKS
BROOKINGS      CLOUDY    30  27  88 E7        29.79F WCI  23
CHAMBERLAIN    CLOUDY    32  30  93 E10       29.76R WCI  23
HURON          CLOUDY    31  29  92 SE6       29.80S WCI  25
MADISON        CLOUDY    28  28 100 SE12        N/A  WCI  18
MITCHELL       CLOUDY    32  29  88 SE15      29.80S WCI  22
SIOUX FALLS    CLOUDY    31  29  92 SE7       29.82S WCI  24
WINNER         CLOUDY    32  28  85 SE13      29.71S WCI  22
YANKTON        PTCLDY    30  27  86 E6        29.81R WCI  24
$$

MNZ071-072-080-081-089-090-097-098-240400-
SOUTHWEST MINNESOTA

CITY           SKY/WX    TMP DP  RH WIND       PRES   REMARKS
FAIRMONT       CLOUDY    31  29  92 N3        29.85R
JACKSON        CLOUDY    30  28  93 CALM      29.83S
MARSHALL       CLOUDY    31  28  89 SE3       29.84F
MONTEVIDEO     CLOUDY    30  30 100 CALM      29.85F
PIPESTONE      CLOUDY    30  28  93 SE5       29.80F WCI  25
REDWOOD FALLS  CLOUDY    33  26  75 CALM      29.85R
TRACY          CLOUDY    32  29  90 CALM      29.84S
WINDOM         CLOUDY    30  28  93 CALM      29.83S
WORTHINGTON    CLOUDY    30  28  92 CALM      29.83S
$$

IAZ001>003-012>014-020>022-031-032-NEZ013-014-SDZ071-240400-
NORTHWEST IOWA

CITY           SKY/WX    TMP DP  RH WIND       PRES   REMARKS
CHEROKEE       CLOUDY    32  31  96 CALM      29.84S
DENISON        CLOUDY    32  30  93 SE5       29.82S WCI  27
ESTHERVILLE    CLOUDY    31  28  89 CALM      29.83S
LE MARS        CLOUDY    32  30  93 SE6       29.84S WCI  26
ORANGE CITY    CLOUDY    32  30  93 SE3       29.83R
SHELDON        CLOUDY    32  32 100 SE5       29.81S WCI  27
SIOUX CITY     CLOUDY    34  30  85 SE6       29.84R WCI  29
SPENCER        CLOUDY    32  30  92 CALM      29.83S
STORM LAKE     CLOUDY    32  30  93 SE6       29.83R WCI  26
$$

ABBREVIATIONS USED IN REMARKS
   TC - TEMPERATURE IN CELSIUS
  WCI - WIND CHILL INDEX
   HX - HEAT INDEX
  VSB - VISIBILITY





USA.gov is the U.S. government's official web portal to all federal, state and local government web resources and services.